N468JL KLOU-KGEO

Flight info

Callsign N468JL
Flight time 0h 45m
Altitude 3500
Route FLM
Aircraft C182/L-VGD/C

Departure

Time 2026-04-29 22:15
Airport Bowman Field (KLOU)

Arrival

Time 2026-04-29 23:00
Airport Brown County Airport (KGEO)
Time Latitude Longitude Altitude Speed Heading
2026-04-29 22:12 38.22372 -85.66273 551 ft 0 kts 96°
2026-04-29 22:13 38.22369 -85.66224 551 ft 10 kts 95°
2026-04-29 22:13 38.22366 -85.66138 551 ft 6 kts 65°
2026-04-29 22:13 38.22374 -85.66137 551 ft 0 kts 322°
2026-04-29 22:14 38.22436 -85.66195 551 ft 34 kts 323°
2026-04-29 22:14 38.22734 -85.66465 596 ft 65 kts 321°
2026-04-29 22:14 38.23122 -85.66798 795 ft 70 kts 321°
2026-04-29 22:14 38.23602 -85.67037 991 ft 80 kts 352°
2026-04-29 22:15 38.24134 -85.66834 1239 ft 79 kts 18°
2026-04-29 22:15 38.24607 -85.66549 1447 ft 76 kts 17°
2026-04-29 22:15 38.25088 -85.66263 1612 ft 78 kts 20°
2026-04-29 22:15 38.25608 -85.65943 1704 ft 89 kts 23°
2026-04-29 22:16 38.26175 -85.65579 1829 ft 94 kts 18°
2026-04-29 22:16 38.26793 -85.65243 1949 ft 99 kts 16°
2026-04-29 22:16 38.27465 -85.64904 2084 ft 109 kts 15°
2026-04-29 22:16 38.28215 -85.64514 2133 ft 122 kts 14°
2026-04-29 22:17 38.29033 -85.64088 2183 ft 130 kts 14°
2026-04-29 22:17 38.29779 -85.63488 2391 ft 127 kts 34°
2026-04-29 22:17 38.30399 -85.62705 2573 ft 124 kts 39°
2026-04-29 22:17 38.30971 -85.61853 2719 ft 128 kts 46°
2026-04-29 22:18 38.31498 -85.60930 2834 ft 132 kts 48°
2026-04-29 22:18 38.32019 -85.59969 2981 ft 130 kts 48°
2026-04-29 22:18 38.32528 -85.59030 3188 ft 129 kts 49°
2026-04-29 22:18 38.32984 -85.58022 3337 ft 133 kts 54°
2026-04-29 22:19 38.33415 -85.56963 3472 ft 138 kts 57°
2026-04-29 22:19 38.33853 -85.55840 3510 ft 140 kts 56°
2026-04-29 22:19 38.34286 -85.54718 3502 ft 140 kts 57°
2026-04-29 22:19 38.34723 -85.53625 3486 ft 140 kts 56°
2026-04-29 22:20 38.35157 -85.52518 3489 ft 140 kts 57°
2026-04-29 22:20 38.35588 -85.51417 3483 ft 138 kts 56°
2026-04-29 22:20 38.36013 -85.50337 3493 ft 136 kts 57°
2026-04-29 22:20 38.36430 -85.49260 3484 ft 136 kts 57°
2026-04-29 22:21 38.36848 -85.48184 3496 ft 135 kts 57°
2026-04-29 22:21 38.37268 -85.47118 3497 ft 134 kts 56°
2026-04-29 22:21 38.37690 -85.46058 3500 ft 133 kts 56°
2026-04-29 22:21 38.38103 -85.45015 3501 ft 133 kts 57°
2026-04-29 22:22 38.38519 -85.43937 3496 ft 134 kts 57°
2026-04-29 22:22 38.38934 -85.42891 3498 ft 134 kts 56°
2026-04-29 22:22 38.39354 -85.41832 3492 ft 135 kts 57°
2026-04-29 22:22 38.39771 -85.40767 3498 ft 133 kts 56°
2026-04-29 22:23 38.40193 -85.39712 3498 ft 133 kts 56°
2026-04-29 22:23 38.40608 -85.38652 3518 ft 135 kts 57°
2026-04-29 22:23 38.41053 -85.37549 3510 ft 143 kts 56°
2026-04-29 22:23 38.41519 -85.36407 3498 ft 149 kts 56°
2026-04-29 22:24 38.42007 -85.35224 3494 ft 151 kts 56°
2026-04-29 22:24 38.42482 -85.34056 3496 ft 145 kts 56°
2026-04-29 22:24 38.42938 -85.32929 3489 ft 141 kts 56°
2026-04-29 22:24 38.43384 -85.31820 3489 ft 139 kts 56°
2026-04-29 22:25 38.43825 -85.30730 3493 ft 137 kts 56°
2026-04-29 22:25 38.44260 -85.29656 3492 ft 136 kts 57°
2026-04-29 22:25 38.44637 -85.28563 3493 ft 136 kts 60°
2026-04-29 22:25 38.45013 -85.27441 3488 ft 136 kts 60°
2026-04-29 22:26 38.45386 -85.26353 3492 ft 136 kts 60°
2026-04-29 22:26 38.45762 -85.25245 3495 ft 135 kts 59°
2026-04-29 22:26 38.46144 -85.24147 3492 ft 135 kts 59°
2026-04-29 22:26 38.46525 -85.23045 3494 ft 135 kts 60°
2026-04-29 22:27 38.46898 -85.21939 3492 ft 136 kts 60°
2026-04-29 22:27 38.47273 -85.20835 3491 ft 136 kts 62°
2026-04-29 22:27 38.47618 -85.19709 3496 ft 136 kts 63°
2026-04-29 22:27 38.47956 -85.18605 3497 ft 135 kts 61°
2026-04-29 22:28 38.48293 -85.17481 3487 ft 136 kts 63°
2026-04-29 22:28 38.48637 -85.16357 3493 ft 135 kts 62°
2026-04-29 22:28 38.48977 -85.15236 3493 ft 136 kts 64°
2026-04-29 22:28 38.49317 -85.14107 3492 ft 136 kts 62°
2026-04-29 22:29 38.49661 -85.12978 3485 ft 137 kts 63°
2026-04-29 22:29 38.50002 -85.11849 3491 ft 136 kts 62°
2026-04-29 22:29 38.50356 -85.10727 3491 ft 136 kts 63°
2026-04-29 22:29 38.50698 -85.09601 3494 ft 136 kts 62°
2026-04-29 22:30 38.51040 -85.08495 3493 ft 136 kts 62°
2026-04-29 22:30 38.51384 -85.07378 3492 ft 135 kts 62°
2026-04-29 22:30 38.51727 -85.06251 3493 ft 135 kts 63°
2026-04-29 22:30 38.52069 -85.05122 3489 ft 136 kts 62°
2026-04-29 22:31 38.52316 -85.03940 3486 ft 138 kts 75°
2026-04-29 22:31 38.52476 -85.02732 3491 ft 138 kts 75°
2026-04-29 22:31 38.52642 -85.01521 3489 ft 138 kts 75°
2026-04-29 22:31 38.52807 -85.00310 3492 ft 138 kts 75°
2026-04-29 22:32 38.52977 -84.99107 3491 ft 138 kts 75°
2026-04-29 22:32 38.53139 -84.97914 3489 ft 138 kts 75°
2026-04-29 22:32 38.53306 -84.96706 3485 ft 139 kts 75°
2026-04-29 22:32 38.53479 -84.95495 3490 ft 138 kts 75°
2026-04-29 22:33 38.53649 -84.94286 3487 ft 139 kts 74°
2026-04-29 22:33 38.53824 -84.93074 3486 ft 139 kts 75°
2026-04-29 22:33 38.53992 -84.91861 3485 ft 139 kts 75°
2026-04-29 22:33 38.54169 -84.90652 3487 ft 138 kts 75°
2026-04-29 22:34 38.54332 -84.89438 3484 ft 139 kts 74°
2026-04-29 22:34 38.54511 -84.88241 3486 ft 138 kts 75°
2026-04-29 22:34 38.54690 -84.87019 3486 ft 138 kts 74°
2026-04-29 22:34 38.54859 -84.85817 3481 ft 139 kts 75°
2026-04-29 22:35 38.55035 -84.84605 3479 ft 139 kts 74°
2026-04-29 22:35 38.55205 -84.83390 3477 ft 139 kts 75°
2026-04-29 22:35 38.55378 -84.82172 3483 ft 139 kts 76°
2026-04-29 22:35 38.55558 -84.80960 3491 ft 138 kts 74°
2026-04-29 22:36 38.55740 -84.79749 3481 ft 139 kts 73°
2026-04-29 22:36 38.55926 -84.78541 3484 ft 139 kts 75°
2026-04-29 22:36 38.56109 -84.77337 3489 ft 138 kts 75°
2026-04-29 22:36 38.56290 -84.76127 3481 ft 139 kts 74°
2026-04-29 22:37 38.56471 -84.74931 3481 ft 139 kts 75°
2026-04-29 22:37 38.56655 -84.73718 3478 ft 139 kts 75°
2026-04-29 22:37 38.56837 -84.72505 3486 ft 138 kts 74°
2026-04-29 22:37 38.57028 -84.71292 3479 ft 139 kts 74°
2026-04-29 22:38 38.57213 -84.70084 3484 ft 138 kts 74°
2026-04-29 22:38 38.57406 -84.68879 3483 ft 138 kts 73°
2026-04-29 22:38 38.57594 -84.67673 3480 ft 138 kts 74°
2026-04-29 22:38 38.57782 -84.66464 3478 ft 139 kts 74°
2026-04-29 22:39 38.57970 -84.65252 3478 ft 139 kts 75°
2026-04-29 22:39 38.58158 -84.64040 3475 ft 139 kts 73°
2026-04-29 22:39 38.58347 -84.62829 3478 ft 139 kts 75°
2026-04-29 22:39 38.58535 -84.61632 3483 ft 138 kts 73°
2026-04-29 22:40 38.58728 -84.60427 3476 ft 138 kts 73°
2026-04-29 22:40 38.58921 -84.59217 3470 ft 138 kts 73°
2026-04-29 22:40 38.59112 -84.58012 3468 ft 139 kts 74°
2026-04-29 22:40 38.59301 -84.56803 3466 ft 139 kts 74°
2026-04-29 22:41 38.59496 -84.55597 3480 ft 138 kts 74°
2026-04-29 22:41 38.59686 -84.54389 3472 ft 139 kts 73°
2026-04-29 22:41 38.59884 -84.53182 3470 ft 139 kts 74°
2026-04-29 22:41 38.60076 -84.51975 3474 ft 138 kts 74°
2026-04-29 22:42 38.60270 -84.50766 3473 ft 139 kts 73°
2026-04-29 22:42 38.60466 -84.49575 3477 ft 138 kts 73°
2026-04-29 22:42 38.60659 -84.48364 3472 ft 139 kts 73°
2026-04-29 22:42 38.60859 -84.47157 3475 ft 139 kts 73°
2026-04-29 22:43 38.61055 -84.45941 3472 ft 139 kts 73°
2026-04-29 22:43 38.61256 -84.44731 3470 ft 140 kts 73°
2026-04-29 22:43 38.61456 -84.43515 3474 ft 139 kts 73°
2026-04-29 22:43 38.61654 -84.42301 3466 ft 139 kts 73°
2026-04-29 22:44 38.61856 -84.41098 3474 ft 138 kts 73°
2026-04-29 22:44 38.62055 -84.39892 3472 ft 138 kts 74°
2026-04-29 22:44 38.62283 -84.38711 3469 ft 138 kts 66°
2026-04-29 22:44 38.62644 -84.37579 3470 ft 137 kts 58°
2026-04-29 22:45 38.63099 -84.36521 3472 ft 135 kts 54°
2026-04-29 22:45 38.63550 -84.35461 3471 ft 135 kts 55°
2026-04-29 22:45 38.63999 -84.34402 3469 ft 136 kts 56°
2026-04-29 22:45 38.64447 -84.33342 3471 ft 135 kts 54°
2026-04-29 22:46 38.64894 -84.32280 3473 ft 135 kts 56°
2026-04-29 22:46 38.65339 -84.31212 3473 ft 136 kts 56°
2026-04-29 22:46 38.65792 -84.30152 3470 ft 136 kts 55°
2026-04-29 22:46 38.66245 -84.29085 3466 ft 136 kts 55°
2026-04-29 22:47 38.66691 -84.28041 3471 ft 135 kts 55°
2026-04-29 22:47 38.67144 -84.26986 3471 ft 135 kts 54°
2026-04-29 22:47 38.67595 -84.25924 3466 ft 136 kts 55°
2026-04-29 22:47 38.68047 -84.24862 3473 ft 135 kts 54°
2026-04-29 22:48 38.68500 -84.23804 3472 ft 136 kts 56°
2026-04-29 22:48 38.68953 -84.22744 3470 ft 136 kts 56°
2026-04-29 22:48 38.69407 -84.21685 3471 ft 135 kts 54°
2026-04-29 22:48 38.69862 -84.20629 3469 ft 135 kts 55°
2026-04-29 22:49 38.70317 -84.19573 3471 ft 135 kts 55°
2026-04-29 22:49 38.70765 -84.18532 3470 ft 135 kts 54°
2026-04-29 22:49 38.71218 -84.17480 3473 ft 134 kts 54°
2026-04-29 22:49 38.71670 -84.16432 3472 ft 135 kts 55°
2026-04-29 22:50 38.72116 -84.15372 3468 ft 135 kts 54°
2026-04-29 22:50 38.72569 -84.14319 3468 ft 135 kts 54°
2026-04-29 22:50 38.73020 -84.13263 3468 ft 135 kts 55°
2026-04-29 22:50 38.73465 -84.12191 3443 ft 138 kts 58°
2026-04-29 22:51 38.73845 -84.11034 3374 ft 143 kts 63°
2026-04-29 22:51 38.74196 -84.09845 3385 ft 140 kts 64°
2026-04-29 22:51 38.74884 -84.07530 3351 ft 138 kts 65°
2026-04-29 22:52 38.75132 -84.06354 3211 ft 140 kts 70°
2026-04-29 22:52 38.75432 -84.05195 3157 ft 133 kts 65°
2026-04-29 22:52 38.75778 -84.04091 3053 ft 135 kts 55°
2026-04-29 22:52 38.76147 -84.03478 3012 ft 126 kts 34°
2026-04-29 22:53 38.76866 -84.03134 3057 ft 100 kts 349°
2026-04-29 22:53 38.77506 -84.03284 3066 ft 103 kts 356°
2026-04-29 22:53 38.78389 -84.02563 3071 ft 119 kts 33°
2026-04-29 22:53 38.78874 -84.01661 3068 ft 128 kts 59°
2026-04-29 22:54 38.79064 -84.00943 3086 ft 130 kts 70°
2026-04-29 22:54 38.79286 -83.99812 3096 ft 131 kts 72°
2026-04-29 22:54 38.79488 -83.98671 3109 ft 131 kts 72°
2026-04-29 22:54 38.79769 -83.97568 3097 ft 129 kts 60°
2026-04-29 22:55 38.80146 -83.96500 3027 ft 135 kts 62°
2026-04-29 22:55 38.80594 -83.95417 2920 ft 138 kts 52°
2026-04-29 22:55 38.81194 -83.94493 2890 ft 132 kts 36°
2026-04-29 22:55 38.81864 -83.93712 2895 ft 128 kts 36°
2026-04-29 22:56 38.82513 -83.92923 2862 ft 129 kts 38°
2026-04-29 22:56 38.83076 -83.91985 2773 ft 137 kts 55°
2026-04-29 22:56 38.83364 -83.90832 2605 ft 137 kts 81°
2026-04-29 22:56 38.83292 -83.89680 2589 ft 121 kts 100°
2026-04-29 22:57 38.83138 -83.88672 2560 ft 111 kts 98°
2026-04-29 22:57 38.83027 -83.87743 2557 ft 101 kts 84°
2026-04-29 22:57 38.83169 -83.86948 2569 ft 83 kts 56°
2026-04-29 22:57 38.83554 -83.86530 2461 ft 73 kts
2026-04-29 22:58 38.84039 -83.86478 2340 ft 66 kts 340°
2026-04-29 22:58 38.84431 -83.86694 2277 ft 59 kts 325°
2026-04-29 22:58 38.84777 -83.87007 2169 ft 60 kts 319°
2026-04-29 22:58 38.85105 -83.87372 2031 ft 65 kts 320°
2026-04-29 22:59 38.85449 -83.87732 1923 ft 64 kts 317°
2026-04-29 22:59 38.85747 -83.88155 1804 ft 65 kts 310°
2026-04-29 22:59 38.86036 -83.88621 1671 ft 68 kts 308°
2026-04-29 22:59 38.86461 -83.88768 1539 ft 71 kts 13°
2026-04-29 23:00 38.86850 -83.88347 1364 ft 75 kts 36°
2026-04-29 23:00 38.87321 -83.88128 1156 ft 70 kts 13°
2026-04-29 23:00 38.87765 -83.88184 1008 ft 58 kts
2026-04-29 23:00 38.88108 -83.88246 962 ft 39 kts 340°
2026-04-29 23:01 38.88299 -83.88299 962 ft 16 kts 334°
2026-04-29 23:01 38.88305 -83.88360 962 ft 4 kts 252°
2026-04-29 23:01 38.88298 -83.88409 962 ft 0 kts 263°